Change the Weather History Date:

Thursday, May 29, 2014

  Actual Average Record
Temperature  
Mean Temperature 58 °F -  
Max Temperature 78 °F 60 °F 80 °F (1999)
Min Temperature 39 °F 39 °F 33 °F (2000)
Degree Days  
Heating Degree Days 6    
Growing Degree Days 8 (Base 50)    
Moisture  
Dew Point 36 °F    
Average Humidity 45    
Maximum Humidity 87    
Minimum Humidity 16    
Precipitation  
Precipitation 0.00 in - - ()
Sea Level Pressure  
Sea Level Pressure 30.16 in    
Wind  
Wind Speed 2 mph (SSE)    
Max Wind Speed 9 mph    
Max Gust Speed -    
Visibility 10 miles    
Events      
Averages and records for this station are not official NWS values.
T = Trace of Precipitation, MM = Missing Value Source: NWS Daily Summary

Daily Weather History Graph

Daily Weather History Graph

Search for Another Location

Airport or City:

Trip Planner

Search our weather history database for the weather conditions in past years. The results will help you decide how hot, cold, wet, or windy it might be!

Date:

Astronomy

May. 29, 2014 Rise Set
Actual Time 5:09 AM CDT 8:49 PM CDT
Civil Twilight 4:29 AM CDT 9:28 PM CDT
Nautical Twilight 3:37 AM CDT 10:21 PM CDT
Astronomical Twilight 2:23 AM CDT 11:36 PM CDT
Moon 6:07 AM CDT (5/29) 9:35 PM CDT (5/29)
Length of Visible Light 16h 58m
Length of Day
15h 40m
New Moon, 1% of the Moon is Illuminated
May 29
New Moon
Jun 5
First Quarter
Jun 12
Full
Jun 19
Last Quarter
Jun 27
New

Hourly Weather History & Observations

Time (CDT) Temp. Windchill Dew Point Humidity Pressure Visibility Wind Dir Wind Speed Gust Speed Precip Events Conditions
12:13 AM 42.8 °F - 39.2 °F 87% 30.17 in 10.0 mi Calm Calm - N/A   Clear
12:33 AM 44.6 °F - 39.2 °F 81% 30.16 in 10.0 mi Calm Calm - N/A   Clear
1:13 AM 42.8 °F - 37.4 °F 81% 30.15 in 10.0 mi Calm Calm - N/A   Clear
1:33 AM 42.8 °F - 37.4 °F 81% 30.15 in 10.0 mi Calm Calm - N/A   Clear
1:54 AM 42.8 °F - 37.4 °F 81% 30.14 in 10.0 mi Calm Calm - N/A   Clear
2:13 AM 41.0 °F - 37.4 °F 87% 30.14 in 10.0 mi Calm Calm - N/A   Clear
2:34 AM 41.0 °F - 37.4 °F 87% 30.14 in 10.0 mi Calm Calm - N/A   Clear
2:53 AM 39.2 °F - 35.6 °F 87% 30.14 in 10.0 mi Calm Calm - N/A   Clear
3:14 AM 41.0 °F - 37.4 °F 87% 30.14 in 10.0 mi Calm Calm - N/A   Clear
3:33 AM 41.0 °F - 37.4 °F 87% 30.15 in 10.0 mi Calm Calm - N/A   Clear
3:54 AM 42.8 °F 41.1 °F 39.2 °F 87% 30.16 in 10.0 mi West 3.5 mph - N/A   Clear
4:14 AM 42.8 °F - 37.4 °F 81% 30.16 in 10.0 mi Calm Calm - N/A   Clear
4:33 AM 41.0 °F 39.0 °F 37.4 °F 87% 30.16 in 10.0 mi West 3.5 mph - N/A   Clear
4:54 AM 41.0 °F - 37.4 °F 87% 30.16 in 10.0 mi Calm Calm - N/A   Clear
5:14 AM 42.8 °F - 37.4 °F 81% 30.17 in 10.0 mi Calm Calm - N/A   Clear
5:33 AM 41.0 °F 39.0 °F 35.6 °F 81% 30.17 in 10.0 mi WNW 3.5 mph - N/A   Clear
5:54 AM 41.0 °F - 37.4 °F 87% 30.18 in 10.0 mi Calm Calm - N/A   Clear
6:13 AM 44.6 °F - 39.2 °F 81% 30.18 in 10.0 mi Calm Calm - N/A   Clear
6:33 AM 46.4 °F - 39.2 °F 76% 30.18 in 10.0 mi Calm Calm - N/A   Clear
6:54 AM 53.6 °F - 42.8 °F 67% 30.17 in 10.0 mi Calm Calm - N/A   Clear
7:13 AM 59.0 °F - 42.8 °F 55% 30.17 in 10.0 mi Calm Calm - N/A   Clear
7:33 AM 60.8 °F - 44.6 °F 55% 30.17 in 10.0 mi Calm Calm - N/A   Clear
7:54 AM 62.6 °F - 41.0 °F 45% 30.17 in 10.0 mi Calm Calm - N/A   Clear
8:13 AM 62.6 °F - 41.0 °F 45% 30.17 in 10.0 mi Calm Calm - N/A   Clear
8:34 AM 68.0 °F - 37.4 °F 33% 30.17 in 10.0 mi Calm Calm - N/A   Clear
8:54 AM 69.8 °F - 33.8 °F 27% 30.17 in 10.0 mi Calm Calm - N/A   Clear
9:13 AM 69.8 °F - 33.8 °F 27% 30.17 in 10.0 mi Calm Calm - N/A   Clear
9:33 AM 73.4 °F - 33.8 °F 23% 30.17 in 10.0 mi South 3.5 mph - N/A   Clear
9:54 AM 73.4 °F - 32.0 °F 22% 30.16 in 10.0 mi South 4.6 mph - N/A   Clear
10:13 AM 71.6 °F - 37.4 °F 29% 30.16 in 10.0 mi Calm Calm - N/A   Clear
10:33 AM 73.4 °F - 42.8 °F 33% 30.16 in 10.0 mi SE 4.6 mph - N/A   Clear
10:54 AM 73.4 °F - 44.6 °F 36% 30.16 in 10.0 mi SE 3.5 mph - N/A   Clear
11:14 AM 75.2 °F - 42.8 °F 31% 30.15 in 10.0 mi SSE 4.6 mph - N/A   Clear
11:33 AM 77.0 °F - 42.8 °F 29% 30.15 in 10.0 mi South 4.6 mph - N/A   Clear
11:53 AM 78.8 °F - 42.8 °F 28% 30.15 in 10.0 mi SE 3.5 mph - N/A   Clear
12:14 PM 78.8 °F - 42.8 °F 28% 30.15 in 10.0 mi SSE 6.9 mph - N/A   Clear
12:33 PM 75.2 °F - 39.2 °F 27% 30.16 in 10.0 mi South 6.9 mph - N/A   Clear
12:53 PM 75.2 °F - 35.6 °F 24% 30.16 in 10.0 mi SSE 8.1 mph - N/A   Clear
1:14 PM 75.2 °F - 33.8 °F 22% 30.16 in 10.0 mi SSE 6.9 mph - N/A   Clear
1:33 PM 75.2 °F - 35.6 °F 24% 30.16 in 10.0 mi SE 8.1 mph - N/A   Clear
1:54 PM 75.2 °F - 35.6 °F 24% 30.16 in 10.0 mi South 8.1 mph - N/A   Clear
2:13 PM 75.2 °F - 33.8 °F 22% 30.17 in 10.0 mi SSE 9.2 mph - N/A   Clear
2:34 PM 75.2 °F - 33.8 °F 22% 30.16 in 10.0 mi South 8.1 mph - N/A   Clear
2:53 PM 75.2 °F - 35.6 °F 24% 30.16 in 10.0 mi SSE 6.9 mph - N/A   Clear
3:14 PM 77.0 °F - 35.6 °F 22% 30.16 in 10.0 mi South 9.2 mph - N/A   Clear
3:33 PM 78.8 °F - 35.6 °F 21% 30.16 in 10.0 mi South 6.9 mph - N/A   Clear
4:14 PM 77.0 °F - 35.6 °F 22% 30.15 in 10.0 mi South 9.2 mph - N/A   Clear
4:33 PM 75.2 °F - 35.6 °F 24% 30.15 in 10.0 mi South 9.2 mph - N/A   Clear
5:14 PM 75.2 °F - 35.6 °F 24% 30.15 in 10.0 mi South 8.1 mph - N/A   Clear
5:33 PM 73.4 °F - 35.6 °F 25% 30.15 in 10.0 mi South 5.8 mph - N/A   Clear
5:54 PM 71.6 °F - 35.6 °F 27% 30.15 in 10.0 mi South 4.6 mph - N/A   Clear
6:13 PM 71.6 °F - 35.6 °F 27% 30.15 in 10.0 mi South 5.8 mph - N/A   Clear
6:34 PM 71.6 °F - 35.6 °F 27% 30.15 in 10.0 mi South 3.5 mph - N/A   Clear
6:54 PM 71.6 °F - 33.8 °F 25% 30.14 in 10.0 mi South 4.6 mph - N/A   Clear
7:13 PM 71.6 °F - 35.6 °F 27% 30.15 in 10.0 mi South 3.5 mph - N/A   Clear
7:34 PM 69.8 °F - 35.6 °F 28% 30.15 in 10.0 mi South 3.5 mph - N/A   Clear
7:53 PM 69.8 °F - 37.4 °F 31% 30.15 in 10.0 mi Calm Calm - N/A   Clear
8:13 PM 68.0 °F - 37.4 °F 33% 30.15 in 10.0 mi Calm Calm - N/A   Clear
8:34 PM 66.2 °F - 35.6 °F 32% 30.15 in 10.0 mi Calm Calm - N/A   Clear
8:53 PM 64.4 °F - 32.0 °F 30% 30.15 in 10.0 mi SE 3.5 mph - N/A   Clear
9:13 PM 62.6 °F - 33.8 °F 34% 30.16 in 10.0 mi Calm Calm - N/A   Clear
9:34 PM 60.8 °F - 30.2 °F 31% 30.16 in 10.0 mi Calm Calm - N/A   Clear
9:53 PM 62.6 °F - 15.8 °F 16% 30.17 in 10.0 mi ESE 3.5 mph - N/A   Clear
10:13 PM 60.8 °F - 21.2 °F 22% 30.16 in 10.0 mi ESE 3.5 mph - N/A   Clear
10:34 PM 60.8 °F - 21.2 °F 22% 30.17 in 10.0 mi East 4.6 mph - N/A   Clear
10:53 PM 57.2 °F - 26.6 °F 31% 30.17 in 10.0 mi ENE 3.5 mph - N/A   Clear
11:14 PM 59.0 °F - 26.6 °F 29% 30.16 in 10.0 mi East 4.6 mph - N/A   Clear
11:33 PM 59.0 °F - 26.6 °F 29% 30.16 in 10.0 mi ENE 4.6 mph - N/A   Clear
11:54 PM 55.4 °F - 28.4 °F 36% 30.17 in 10.0 mi ENE 3.5 mph - N/A   Clear